This is the latest recevied weather packets stored in our database for station/object IU7LMH-13. If no packets are shown the sender has not sent any weather packets the latest 10 day(s).
| Time | Temp. | Humidity | Pressure | Rain* | Wind** | Luminosity | Snow |
|---|---|---|---|---|---|---|---|
| 1777887578 | 24.44° C | 46% | 1018.6 hPa | 0 mm | - | - | - |
| 1777887097 | 24.44° C | 48% | 1018.5 hPa | 0 mm | - | - | - |
| 1777886618 | 23.89° C | 49% | 1018.5 hPa | 0 mm | - | - | - |
| 1777886497 | 23.89° C | 49% | 1018.6 hPa | 0 mm | - | - | - |
| 1777885418 | 22.22° C | 53% | 1018.8 hPa | 0 mm | - | - | - |
| 1777884578 | 22.78° C | 55% | 1018.7 hPa | 0 mm | - | - | - |
| 1777884457 | 22.78° C | 54% | 1018.9 hPa | 0 mm | - | - | - |
| 1777884218 | 23.33° C | 55% | 1018.9 hPa | 0 mm | - | - | - |
| 1777883379 | 23.89° C | 52% | 1018.9 hPa | 0 mm | - | - | - |
| 1777883257 | 23.33° C | 46% | 1018.8 hPa | 0 mm | - | - | - |
| 1777881943 | 24.44° C | 43% | 1018.9 hPa | 0 mm | - | - | - |
| 1777880977 | 23.33° C | 43% | 1018.9 hPa | 0 mm | - | - | - |
| 1777880498 | 22.78° C | 46% | 1018.9 hPa | 0 mm | - | - | - |
| 1777879544 | 21.67° C | 48% | 1019 hPa | 0 mm | - | - | - |
| 1777879058 | 21.11° C | 49% | 1018.8 hPa | 0 mm | - | - | - |
| 1777878945 | 21.11° C | 50% | 1018.8 hPa | 0 mm | - | - | - |
| 1777878698 | 20.56° C | 52% | 1018.8 hPa | 0 mm | - | - | - |
| 1777877498 | 19.44° C | 56% | 1018.8 hPa | 0 mm | - | - | - |
| 1777877256 | 19.44° C | 56% | 1018.8 hPa | 0 mm | - | - | - |
| 1777877145 | 18.89° C | 57% | 1018.7 hPa | 0 mm | - | - | - |
| 1777876418 | 18.33° C | 56% | 1018.8 hPa | 0 mm | - | - | - |
| 1777875946 | 18.33° C | 58% | 1018.8 hPa | 0 mm | - | - | - |
| 1777874977 | 17.22° C | 60% | 1019 hPa | 0 mm | - | - | - |
| 1777874858 | 16.67° C | 59% | 1018.9 hPa | 0 mm | - | - | - |
| 1777874259 | 16.67° C | 62% | 1018.9 hPa | 0 mm | - | - | - |
* Rain latest hour (hover to see other rain measurements)
** Current wind speed in m/s (hover to see current wind gust speed)